Find Starlink 31538

NORAD ID: 59525 Int'l Des: 2024-073 Owner: SPXS Country: US Constellation: starlink operational
LEOCIRCULAR

当前视图

正在加载3D地球...

About Starlink 31538

Starlink 31538 (NORAD 59525) is a starlink constellation satellite (v2 mini) launched Apr 17, 2024 by SPXS of US. It operates in LEO, CIRCULAR orbit with a mass of 730.00 kg.

关于 Starlink 31538

正在加载描述...

即将过境

Passes for default location (London). Set your location on the main map for personalized predictions.

高度历史

Loading altitude history...

两行轨道根数

1 59525U 24073Q 26169.94582966 .00000636 00000-0 32632-4 0 9990
2 59525 43.0031 105.9875 0001347 271.4130 88.6567 15.27581820121662
Epoch: Jun 18, 2026 • Age: 29 hours

当前状态

高度 485.7 km
速度 7.63 km/s
星下点 36.67°N, 93.69°W
发射日期 Apr 17, 2024
运行时间 2.1 years
类型 internet

技术详情

分类 Payload
质量 730.00 kg
干质量 700.00 kg
总质量 730.00 kg
长度 0.30 m
直径 4.10 m
跨度 29.00 m
形状 Box + pan
制造商 SPXS
平台类型 Starlink V2M
阶段状态 In Orbit
所有者/国家 SPXS/US

Most Searched